Weather in Kokand

Uzbekistan     40°32′20″N   70°56′25″E
temp.,
°C
wind,
m/s
gust,
m/s
humid.,
%
clouds,
%
prec.,
mm/h
press.,
hPa
HPBL,
m
18 january, tue
tue1823:00+6nw1189100 1.9 102378
02:00+6ene1187100 0.1 102362
05:00+6e2389100 0.1 1023146
08:00+6ne2492100 0.0 1023189
11:00+7ene358297 0.1 1023297
14:00+9ene457389 0.0 1019710
17:00+8ne1273100 0.0 1017100
20:00+7se1177100 0.0 101433
19 january, wed
wed1923:00+7w1179100 0.0 101311
02:00+6ese1180100 0.0 101114
05:00+6e1180100 0.0 101011
08:00+6e2481100 0.0 101399
11:00+7n2379100 0.6 1016358
14:00+8ssw3676100 3.9 1016642
17:00+7wsw8135975 3.9 1019588
20:00+6wsw7135926 0.0 1022590
20 january, thu
thu2023:00+5wsw6126014 0.0 1023516
02:00
05:00+3wsw48755 0.0 1025259
08:00+2ssw11792 0.0 102755
11:00
14:00+7ene23525 0.0 1023820
17:00+7e34540 0.0 1022512
20:00+5ene23601 0.0 102188
21 january, fri
fri2123:00+4ese23664 0.0 102074
02:00+3ese24690 0.0 1018102
05:00+2ene24610 0.0 1016146
08:00+1e24640 0.0 1014114
11:00+5ene33470 0.0 1012385
14:00+7ne11330 0.0 1010529
17:00+7ne11335 0.0 1010196
20:00+5e23405 0.0 101382
22 january, sat
sat2223:00+4e2243100 0.0 101557
02:00+3ene2346100 0.0 101774
05:00+2ese1147100 0.0 101832
08:00+2e1145100 0.0 102030
11:00+5n1136100 0.0 1022250
14:00+7w3431100 0.0 1021586
17:00+6w4765100 0.0 1022565
20:00+4w61180100 0.0 1024452